Location: Newark
(47.3150°N, 5.1150°E)
Time: 12:43:08
(UTC+00:00)

O/OREOS (USA 219) - Pass Details

Date: 17 December 2019
Orbit: 621 x 646 km, 72.0° (Epoch: 22 May)

Event Time Altitude Azimuth Distance (km) Brightness Sun altitude
Exits shadow 04:57:15 23° 360° (N) 1,386 ? -23.2°
Maximum altitude 04:59:42 41° 58° (ENE) 929 ? -22.8°
Drops below altitude 10° 05:04:01 10° 129° (SE) 2,024 ? -22.1°
Sets 05:06:23 0° 136° (SE) 2,924 ? -21.7°
